Year,Month,Day,Hour,Minute,Value (Times are PST for temperature in C)
2015,08,18,09,47,21.10
2015,08,18,09,48,21.10
2015,08,18,09,49,21.10
2015,08,18,09,50,20.90
2015,08,18,09,51,20.80
2015,08,18,09,52,20.80
2015,08,18,09,53,20.80
2015,08,18,09,54,20.80
2015,08,18,09,55,20.80
2015,08,18,09,56,20.80
2015,08,18,09,57,20.80
2015,08,18,09,58,20.70
2015,08,18,09,59,20.70
2015,08,18,10,00,20.70
2015,08,18,10,01,20.70
2015,08,18,10,02,20.70
2015,08,18,10,03,20.70
2015,08,18,10,04,20.80
2015,08,18,10,05,20.80
2015,08,18,10,06,20.90
2015,08,18,10,07,20.90
2015,08,18,10,08,21.00
2015,08,18,10,09,21.10
2015,08,18,10,10,21.10
2015,08,18,10,11,21.10
2015,08,18,10,12,21.00
2015,08,18,10,13,21.00
2015,08,18,10,14,21.00
2015,08,18,10,15,20.90
2015,08,18,10,16,20.90
2015,08,18,10,17,21.00
2015,08,18,10,18,21.00
2015,08,18,10,19,21.00
2015,08,18,10,20,21.00
2015,08,18,10,21,21.10
2015,08,18,10,22,21.10
2015,08,18,10,23,21.10
2015,08,18,10,24,21.20
2015,08,18,10,25,21.30
2015,08,18,10,26,21.50
2015,08,18,10,27,21.60
2015,08,18,10,28,21.70
2015,08,18,10,29,21.80
2015,08,18,10,30,21.90
2015,08,18,10,31,22.00
2015,08,18,10,32,22.10
2015,08,18,10,33,22.20
2015,08,18,10,34,22.30
2015,08,18,10,35,22.40
2015,08,18,10,36,22.50
2015,08,18,10,37,22.60
2015,08,18,10,38,22.70
2015,08,18,10,39,22.80
2015,08,18,10,40,22.90
2015,08,18,10,41,22.90
2015,08,18,10,42,22.90
2015,08,18,10,43,22.90
2015,08,18,10,44,22.90
2015,08,18,10,45,22.80
2015,08,18,10,46,22.70
2015,08,18,10,47,22.60
2015,08,18,10,48,22.60
2015,08,18,10,49,22.50
2015,08,18,10,50,22.50
2015,08,18,10,51,22.50
2015,08,18,10,52,22.60
2015,08,18,10,53,22.60
2015,08,18,10,54,22.60
2015,08,18,10,55,22.60
2015,08,18,10,56,22.60
2015,08,18,10,57,22.60
2015,08,18,10,58,22.50
2015,08,18,10,59,22.50
2015,08,18,11,00,22.50
2015,08,18,11,01,22.40
2015,08,18,11,02,22.40
2015,08,18,11,03,22.40
2015,08,18,11,04,22.50
2015,08,18,11,05,22.50
2015,08,18,11,06,22.50
2015,08,18,11,07,22.50
2015,08,18,11,08,22.50
2015,08,18,11,09,22.60
2015,08,18,11,10,22.70
2015,08,18,11,11,22.80
2015,08,18,11,12,22.90
2015,08,18,11,13,23.00
2015,08,18,11,14,23.20
2015,08,18,11,15,23.30
2015,08,18,11,16,23.40
2015,08,18,11,17,23.60
2015,08,18,11,18,23.70
2015,08,18,11,19,23.80
2015,08,18,11,20,23.80
2015,08,18,11,21,23.80
2015,08,18,11,22,23.70
2015,08,18,11,23,23.70
2015,08,18,11,24,23.60
2015,08,18,11,25,23.50
2015,08,18,11,26,23.40
2015,08,18,11,27,23.40
2015,08,18,11,28,23.40
2015,08,18,11,29,23.30
2015,08,18,11,30,23.30
2015,08,18,11,31,23.30
2015,08,18,11,32,23.10
2015,08,18,11,33,22.80
2015,08,18,11,34,22.70
2015,08,18,11,35,22.60
2015,08,18,11,36,22.60
2015,08,18,11,37,22.60
2015,08,18,11,38,22.70
2015,08,18,11,39,22.60
2015,08,18,11,40,22.60
2015,08,18,11,41,22.70
2015,08,18,11,42,22.90
2015,08,18,11,43,22.80
2015,08,18,11,44,22.80
2015,08,18,11,45,22.90
2015,08,18,11,46,22.90
2015,08,18,11,47,22.90
2015,08,18,11,48,22.90
2015,08,18,11,49,23.00
2015,08,18,11,50,22.90
2015,08,18,11,51,22.80
2015,08,18,11,52,22.80
2015,08,18,11,53,22.70
2015,08,18,11,54,22.70
2015,08,18,11,55,22.60
2015,08,18,11,56,22.50
2015,08,18,11,57,22.60
2015,08,18,11,58,22.60
2015,08,18,11,59,22.70
2015,08,18,12,00,22.70
2015,08,18,12,01,22.70
2015,08,18,12,02,22.80
2015,08,18,12,03,22.80
2015,08,18,12,04,22.80
2015,08,18,12,05,22.80
2015,08,18,12,06,22.70
2015,08,18,12,07,22.70
2015,08,18,12,08,22.70
2015,08,18,12,09,22.60
2015,08,18,12,10,22.60
2015,08,18,12,11,22.70
2015,08,18,12,12,22.70
2015,08,18,12,13,22.80
2015,08,18,12,14,22.70
2015,08,18,12,15,22.70
2015,08,18,12,16,22.70
2015,08,18,12,17,22.90
2015,08,18,12,18,22.90
2015,08,18,12,19,23.10
2015,08,18,12,20,23.20
2015,08,18,12,21,23.20
2015,08,18,12,22,23.20
2015,08,18,12,23,23.30
2015,08,18,12,24,23.30
2015,08,18,12,25,23.30
2015,08,18,12,26,23.20
2015,08,18,12,27,22.90
2015,08,18,12,28,22.70
2015,08,18,12,29,22.50
2015,08,18,12,30,22.30
2015,08,18,12,31,22.30
2015,08,18,12,32,22.30
2015,08,18,12,33,22.30
2015,08,18,12,34,22.40
2015,08,18,12,35,22.60
2015,08,18,12,36,22.70
2015,08,18,12,37,22.90
2015,08,18,12,38,22.90
2015,08,18,12,39,22.90
2015,08,18,12,40,23.00
2015,08,18,12,41,23.10
2015,08,18,12,42,23.10
2015,08,18,12,43,23.20
2015,08,18,12,44,23.20
2015,08,18,12,45,23.30
2015,08,18,12,46,23.30
2015,08,18,12,47,23.40
2015,08,18,12,48,23.50
2015,08,18,12,49,23.60
2015,08,18,12,50,23.60
2015,08,18,12,51,23.50
2015,08,18,12,52,23.40
2015,08,18,12,53,23.20
2015,08,18,12,54,23.20
2015,08,18,12,55,23.20
2015,08,18,12,56,23.20
2015,08,18,12,57,23.20
2015,08,18,12,58,23.20
2015,08,18,12,59,23.10
2015,08,18,13,00,23.10
2015,08,18,13,01,23.10
2015,08,18,13,02,23.10
2015,08,18,13,03,23.10
2015,08,18,13,04,23.10
2015,08,18,13,05,23.20
2015,08,18,13,06,23.30
2015,08,18,13,07,23.30
2015,08,18,13,08,23.40
2015,08,18,13,09,23.40
2015,08,18,13,10,23.40
2015,08,18,13,11,23.50
2015,08,18,13,12,23.50
2015,08,18,13,13,23.50
2015,08,18,13,14,23.60
2015,08,18,13,15,23.70
2015,08,18,13,16,23.70
2015,08,18,13,17,23.70
2015,08,18,13,18,23.80
2015,08,18,13,19,23.90
2015,08,18,13,20,24.10
2015,08,18,13,21,24.10
2015,08,18,13,22,24.10
2015,08,18,13,23,24.00
2015,08,18,13,24,24.00
2015,08,18,13,25,24.10
2015,08,18,13,26,24.10
2015,08,18,13,27,24.10
2015,08,18,13,28,24.10
2015,08,18,13,29,24.10
2015,08,18,13,30,24.10
2015,08,18,13,31,24.10
2015,08,18,13,32,24.10
2015,08,18,13,33,24.30
2015,08,18,13,34,24.30
2015,08,18,13,35,24.30
2015,08,18,13,36,24.20
2015,08,18,13,37,24.10
2015,08,18,13,38,23.90
2015,08,18,13,39,23.80
2015,08,18,13,40,23.70
2015,08,18,13,41,23.60
2015,08,18,13,42,23.70
2015,08,18,13,43,23.60
2015,08,18,13,44,23.60
2015,08,18,13,45,23.60
2015,08,18,13,46,23.60
2015,08,18,13,47,23.60
2015,08,18,13,48,23.50
2015,08,18,13,49,23.50
2015,08,18,13,50,23.60
2015,08,18,13,51,23.70
2015,08,18,13,52,23.70
2015,08,18,13,53,23.90
2015,08,18,13,54,24.10
2015,08,18,13,55,24.20
2015,08,18,13,56,24.40
2015,08,18,13,57,24.60
2015,08,18,13,58,24.70
2015,08,18,13,59,24.80
2015,08,18,14,00,24.80
2015,08,18,14,01,24.90
2015,08,18,14,02,25.00
2015,08,18,14,03,25.20
2015,08,18,14,04,25.30
2015,08,18,14,05,25.40
2015,08,18,14,06,25.40
2015,08,18,14,07,25.40
2015,08,18,14,08,25.40
2015,08,18,14,09,25.40
2015,08,18,14,10,25.50
2015,08,18,14,11,25.60
2015,08,18,14,12,25.60
2015,08,18,14,13,25.60
2015,08,18,14,14,25.50
2015,08,18,14,15,25.40
2015,08,18,14,16,25.30
2015,08,18,14,17,25.30
2015,08,18,14,18,25.30
2015,08,18,14,19,25.30
2015,08,18,14,20,25.30
2015,08,18,14,21,25.30
2015,08,18,14,22,25.40
2015,08,18,14,23,25.50
2015,08,18,14,24,25.60
2015,08,18,14,25,25.70
2015,08,18,14,26,25.70
2015,08,18,14,27,25.70
2015,08,18,14,28,25.70
2015,08,18,14,29,25.70
2015,08,18,14,30,25.60
2015,08,18,14,31,25.60
2015,08,18,14,32,25.60
2015,08,18,14,33,25.40
2015,08,18,14,34,25.10
2015,08,18,14,35,24.70
2015,08,18,14,36,24.60
2015,08,18,14,37,24.60
2015,08,18,14,38,24.60
2015,08,18,14,39,24.60
2015,08,18,14,40,24.70
2015,08,18,14,41,24.70
2015,08,18,14,42,24.70
2015,08,18,14,43,24.70
2015,08,18,14,44,24.80
2015,08,18,14,45,25.00
2015,08,18,14,46,25.20
2015,08,18,14,47,25.30
2015,08,18,14,48,25.40
2015,08,18,14,49,25.50
2015,08,18,14,50,25.60
2015,08,18,14,51,25.70
2015,08,18,14,52,25.80
2015,08,18,14,53,25.80
2015,08,18,14,54,25.90
2015,08,18,14,55,25.80
2015,08,18,14,56,25.60
2015,08,18,14,57,25.40
2015,08,18,14,58,25.20
2015,08,18,14,59,24.90
2015,08,18,15,00,24.70
2015,08,18,15,01,24.50
2015,08,18,15,02,24.40
2015,08,18,15,03,24.40
2015,08,18,15,04,24.30
2015,08,18,15,05,24.40
2015,08,18,15,06,24.40
2015,08,18,15,07,24.40
2015,08,18,15,08,24.40
2015,08,18,15,09,24.30
2015,08,18,15,10,24.30
2015,08,18,15,11,24.40
2015,08,18,15,12,24.50
2015,08,18,15,13,24.50
2015,08,18,15,14,24.60
2015,08,18,15,15,24.70
2015,08,18,15,16,24.70
2015,08,18,15,17,24.80
2015,08,18,15,18,24.90
2015,08,18,15,19,24.90
2015,08,18,15,20,24.80
2015,08,18,15,21,24.80
2015,08,18,15,22,24.90
2015,08,18,15,23,25.00
2015,08,18,15,24,25.00
2015,08,18,15,25,25.10
2015,08,18,15,26,25.00
2015,08,18,15,27,25.10
2015,08,18,15,28,25.20
2015,08,18,15,29,25.20
2015,08,18,15,30,25.20
2015,08,18,15,31,25.20
2015,08,18,15,32,25.10
2015,08,18,15,33,25.10
2015,08,18,15,34,25.10
2015,08,18,15,35,25.10
2015,08,18,15,36,25.00
2015,08,18,15,37,25.10
2015,08,18,15,38,25.20
2015,08,18,15,39,25.30
2015,08,18,15,40,25.30
2015,08,18,15,41,25.30
2015,08,18,15,42,25.30
2015,08,18,15,43,25.30
2015,08,18,15,44,25.40
2015,08,18,15,45,25.50
2015,08,18,15,46,25.60
2015,08,18,15,47,25.60
2015,08,18,15,48,25.80
2015,08,18,15,49,25.80
2015,08,18,15,50,25.70
2015,08,18,15,51,25.60
2015,08,18,15,52,25.50
2015,08,18,15,53,25.50
2015,08,18,15,54,25.60
2015,08,18,15,55,25.60
2015,08,18,15,56,25.60
2015,08,18,15,57,25.50
2015,08,18,15,58,25.50
2015,08,18,15,59,25.50
2015,08,18,16,00,25.50
2015,08,18,16,01,25.60
2015,08,18,16,02,25.60
2015,08,18,16,03,25.70
2015,08,18,16,04,25.80
2015,08,18,16,05,25.90
2015,08,18,16,06,26.00
2015,08,18,16,07,26.10
2015,08,18,16,08,26.10
2015,08,18,16,09,26.10
2015,08,18,16,10,26.10
2015,08,18,16,11,26.10
2015,08,18,16,12,26.20
2015,08,18,16,13,26.20
2015,08,18,16,14,26.30
2015,08,18,16,15,26.40
2015,08,18,16,16,26.60
2015,08,18,16,17,26.60
2015,08,18,16,18,26.60
2015,08,18,16,19,26.70
2015,08,18,16,20,26.80
2015,08,18,16,21,26.90
2015,08,18,16,22,27.00
2015,08,18,16,23,27.10
2015,08,18,16,24,27.10
2015,08,18,16,25,27.10
2015,08,18,16,26,27.00
2015,08,18,16,27,26.90
2015,08,18,16,28,26.80
2015,08,18,16,29,26.70
2015,08,18,16,30,26.70
2015,08,18,16,31,26.70
2015,08,18,16,32,26.70
2015,08,18,16,33,26.70
2015,08,18,16,34,26.80
2015,08,18,16,35,26.80
2015,08,18,16,36,26.90
2015,08,18,16,37,27.00
2015,08,18,16,38,27.00
2015,08,18,16,39,26.90
2015,08,18,16,40,26.90
2015,08,18,16,41,26.80
2015,08,18,16,42,26.70
2015,08,18,16,43,26.70
2015,08,18,16,44,26.80
2015,08,18,16,45,26.80
2015,08,18,16,46,26.80
2015,08,18,16,47,26.80
2015,08,18,16,48,26.90
2015,08,18,16,49,27.00
2015,08,18,16,50,27.10
2015,08,18,16,51,27.10
2015,08,18,16,52,27.20
2015,08,18,16,53,27.20
2015,08,18,16,54,27.10
2015,08,18,16,55,27.00
2015,08,18,16,56,26.90
2015,08,18,16,57,26.90
2015,08,18,16,58,27.00
2015,08,18,16,59,27.10
2015,08,18,17,00,27.00
2015,08,18,17,01,26.90
2015,08,18,17,02,26.90
2015,08,18,17,03,27.00
2015,08,18,17,04,27.00
2015,08,18,17,05,27.10
2015,08,18,17,06,27.10
2015,08,18,17,07,27.10
2015,08,18,17,08,27.00
2015,08,18,17,09,26.90
2015,08,18,17,10,26.90
2015,08,18,17,11,27.00
2015,08,18,17,12,27.10
2015,08,18,17,13,27.20
2015,08,18,17,14,27.30
2015,08,18,17,15,27.30
2015,08,18,17,16,27.10
2015,08,18,17,17,26.90
2015,08,18,17,18,26.60
2015,08,18,17,19,26.50
2015,08,18,17,20,26.30
2015,08,18,17,21,26.10
2015,08,18,17,22,25.90
2015,08,18,17,23,25.80
2015,08,18,17,24,25.70
2015,08,18,17,25,25.60
2015,08,18,17,26,25.60
2015,08,18,17,27,25.40
2015,08,18,17,28,25.40
2015,08,18,17,29,25.40
2015,08,18,17,30,25.40
2015,08,18,17,31,25.30
2015,08,18,17,32,25.30
2015,08,18,17,33,25.30
2015,08,18,17,34,25.30
2015,08,18,17,35,25.20
2015,08,18,17,36,25.00
2015,08,18,17,37,24.90
2015,08,18,17,38,24.80
2015,08,18,17,39,24.80
2015,08,18,17,40,24.80
2015,08,18,17,41,24.70
2015,08,18,17,42,24.60
2015,08,18,17,43,24.50
2015,08,18,17,44,24.40
2015,08,18,17,45,24.40
2015,08,18,17,46,24.50
2015,08,18,17,47,24.50
2015,08,18,17,48,24.50
2015,08,18,17,49,24.50
2015,08,18,17,50,24.40
2015,08,18,17,51,24.40
2015,08,18,17,52,24.30
2015,08,18,17,53,24.30
2015,08,18,17,54,24.20
2015,08,18,17,55,24.10
2015,08,18,17,56,24.10
2015,08,18,17,57,24.10
2015,08,18,17,58,24.10
2015,08,18,17,59,24.10
2015,08,18,18,00,24.10
2015,08,18,18,01,24.10
2015,08,18,18,02,24.10
2015,08,18,18,03,24.20
2015,08,18,18,04,24.30
2015,08,18,18,05,24.40
2015,08,18,18,06,24.50
2015,08,18,18,07,24.50
2015,08,18,18,08,24.70
2015,08,18,18,09,24.70
2015,08,18,18,10,24.80
2015,08,18,18,11,24.80
2015,08,18,18,12,24.90
2015,08,18,18,13,25.00
2015,08,18,18,14,25.00
2015,08,18,18,15,25.10
2015,08,18,18,16,25.20
2015,08,18,18,17,25.20
2015,08,18,18,18,25.30
2015,08,18,18,19,25.30
2015,08,18,18,20,25.20
2015,08,18,18,21,25.20
2015,08,18,18,22,25.20
2015,08,18,18,23,25.20
2015,08,18,18,24,25.20
2015,08,18,18,25,25.20
2015,08,18,18,26,25.30
2015,08,18,18,27,25.30
2015,08,18,18,28,25.30
2015,08,18,18,29,25.30
2015,08,18,18,30,25.40
2015,08,18,18,31,25.40
2015,08,18,18,32,25.50
2015,08,18,18,33,25.50
2015,08,18,18,34,25.50
2015,08,18,18,35,25.40
2015,08,18,18,36,25.30
2015,08,18,18,37,25.20
2015,08,18,18,38,25.20
2015,08,18,18,39,25.10
2015,08,18,18,40,25.10
2015,08,18,18,41,25.20
2015,08,18,18,42,25.20
2015,08,18,18,43,25.20
2015,08,18,18,44,25.20
2015,08,18,18,45,25.20
2015,08,18,18,46,25.30
2015,08,18,18,47,25.30
2015,08,18,18,48,25.30
2015,08,18,18,49,25.30
2015,08,18,18,50,25.30
2015,08,18,18,51,25.30
2015,08,18,18,52,25.30
2015,08,18,18,53,25.40
2015,08,18,18,54,25.40
2015,08,18,18,55,25.50
2015,08,18,18,56,25.50
2015,08,18,18,57,25.50
2015,08,18,18,58,25.50
2015,08,18,18,59,25.50
2015,08,18,19,00,25.50
2015,08,18,19,01,25.50
2015,08,18,19,02,25.50
2015,08,18,19,03,25.50
2015,08,18,19,04,25.50
2015,08,18,19,05,25.50
2015,08,18,19,06,25.50
2015,08,18,19,07,25.50
2015,08,18,19,08,25.50
2015,08,18,19,09,25.40
2015,08,18,19,10,25.40
2015,08,18,19,11,25.30
2015,08,18,19,12,25.20
2015,08,18,19,13,25.10
2015,08,18,19,14,25.10
2015,08,18,19,15,25.00
2015,08,18,19,16,24.90
2015,08,18,19,17,24.90
2015,08,18,19,18,24.90
2015,08,18,19,19,24.90
2015,08,18,19,20,24.80
2015,08,18,19,21,24.80
2015,08,18,19,22,24.80
2015,08,18,19,23,24.80
2015,08,18,19,24,24.80
2015,08,18,19,25,24.70
2015,08,18,19,26,24.70
2015,08,18,19,27,24.60
2015,08,18,19,28,24.50
2015,08,18,19,29,24.50
2015,08,18,19,30,24.40
2015,08,18,19,31,24.30
2015,08,18,19,32,24.20
2015,08,18,19,33,24.10
2015,08,18,19,34,24.10
2015,08,18,19,35,24.10
2015,08,18,19,36,24.00
2015,08,18,19,37,23.80
2015,08,18,19,38,23.60
2015,08,18,19,39,23.50
2015,08,18,19,40,23.30
2015,08,18,19,41,23.30
2015,08,18,19,42,23.30
2015,08,18,19,43,23.20
2015,08,18,19,44,23.20
2015,08,18,19,45,23.20
2015,08,18,19,46,23.10
2015,08,18,19,47,23.10
2015,08,18,19,48,23.10
2015,08,18,19,49,23.00
2015,08,18,19,50,22.90
2015,08,18,19,51,22.90
2015,08,18,19,52,22.80
2015,08,18,19,53,22.70
2015,08,18,19,54,22.60
2015,08,18,19,55,22.60
2015,08,18,19,56,22.50
2015,08,18,19,57,22.40
2015,08,18,19,58,22.40
2015,08,18,19,59,22.30
2015,08,18,20,00,22.20
2015,08,18,20,01,22.20
2015,08,18,20,02,22.10
2015,08,18,20,03,22.00
2015,08,18,20,04,22.00
2015,08,18,20,05,21.90
2015,08,18,20,06,21.80
2015,08,18,20,07,21.80
2015,08,18,20,08,21.80
2015,08,18,20,09,21.80
2015,08,18,20,10,21.80
2015,08,18,20,11,21.80
2015,08,18,20,12,21.80
2015,08,18,20,13,21.80
2015,08,18,20,14,21.80
2015,08,18,20,15,21.80
2015,08,18,20,16,21.80
